02/05/2024 10:30:00,0.358
02/05/2024 10:45:00,0.358
02/05/2024 11:00:00,0.358
02/05/2024 11:15:00,0.357
02/05/2024 11:30:00,0.357
02/05/2024 11:45:00,0.357
02/05/2024 12:00:00,0.357
02/05/2024 12:15:00,0.356
02/05/2024 12:30:00,0.356
02/05/2024 12:45:00,0.356
02/05/2024 13:00:00,0.356
02/05/2024 13:15:00,0.356
02/05/2024 13:30:00,0.356
02/05/2024 13:45:00,0.355
02/05/2024 14:00:00,0.355
02/05/2024 14:15:00,0.355
02/05/2024 14:30:00,0.355
02/05/2024 14:45:00,0.355
02/05/2024 15:00:00,0.354
02/05/2024 15:15:00,0.354
02/05/2024 15:30:00,0.353
02/05/2024 15:45:00,0.353
02/05/2024 16:00:00,0.353
02/05/2024 16:15:00,0.353
02/05/2024 16:30:00,0.353
02/05/2024 16:45:00,0.353
02/05/2024 17:00:00,0.353
02/05/2024 17:15:00,0.353
02/05/2024 17:30:00,0.353
02/05/2024 17:45:00,0.352
02/05/2024 18:00:00,0.352
02/05/2024 18:15:00,0.352
02/05/2024 18:30:00,0.352
02/05/2024 18:45:00,0.351
02/05/2024 19:00:00,0.351
02/05/2024 19:15:00,0.351
02/05/2024 19:30:00,0.35
02/05/2024 19:45:00,0.35
02/05/2024 20:00:00,0.349
02/05/2024 20:15:00,0.349
02/05/2024 20:30:00,0.348
02/05/2024 20:45:00,0.348
02/05/2024 21:00:00,0.347
02/05/2024 21:15:00,0.347
02/05/2024 21:30:00,0.347
02/05/2024 21:45:00,0.346
02/05/2024 22:00:00,0.346
02/05/2024 22:15:00,0.346
02/05/2024 22:30:00,0.345
02/05/2024 22:45:00,0.345
02/05/2024 23:00:00,0.345
02/05/2024 23:15:00,0.344
02/05/2024 23:30:00,0.344
02/05/2024 23:45:00,0.343
03/05/2024 00:00:00,0.343
03/05/2024 00:15:00,0.343
03/05/2024 00:30:00,0.343
03/05/2024 00:45:00,0.343
03/05/2024 01:00:00,0.343
03/05/2024 01:15:00,0.343
03/05/2024 01:30:00,0.342
03/05/2024 01:45:00,0.342
03/05/2024 02:00:00,0.341
03/05/2024 02:15:00,0.341
03/05/2024 02:30:00,0.34
03/05/2024 02:45:00,0.34
03/05/2024 03:00:00,0.34
03/05/2024 03:15:00,0.34
03/05/2024 03:30:00,0.339
03/05/2024 03:45:00,0.339
03/05/2024 04:00:00,0.339
03/05/2024 04:15:00,0.338
03/05/2024 04:30:00,0.338
03/05/2024 04:45:00,0.338
03/05/2024 05:00:00,0.338
03/05/2024 05:15:00,0.338
03/05/2024 05:30:00,0.338
03/05/2024 05:45:00,0.338
03/05/2024 06:00:00,0.337
03/05/2024 06:15:00,0.337
03/05/2024 06:30:00,0.337
03/05/2024 06:45:00,0.337
03/05/2024 07:00:00,0.337
03/05/2024 07:15:00,0.337
03/05/2024 07:30:00,0.336
03/05/2024 07:45:00,0.336
03/05/2024 08:00:00,0.336
03/05/2024 08:15:00,0.336
03/05/2024 08:30:00,0.335
03/05/2024 08:45:00,0.335
03/05/2024 09:00:00,0.335
03/05/2024 09:15:00,0.335
03/05/2024 09:30:00,0.334
03/05/2024 09:45:00,0.334
03/05/2024 10:00:00,0.334
03/05/2024 10:15:00,0.334
03/05/2024 10:30:00,0.333
03/05/2024 10:45:00,0.333
03/05/2024 11:00:00,0.333
03/05/2024 11:15:00,0.333
03/05/2024 11:30:00,0.332
03/05/2024 11:45:00,0.332
03/05/2024 12:00:00,0.332
03/05/2024 12:15:00,0.332
03/05/2024 12:30:00,0.332
03/05/2024 12:45:00,0.332
03/05/2024 13:00:00,0.332
03/05/2024 13:15:00,0.331
03/05/2024 13:30:00,0.331
03/05/2024 13:45:00,0.331
03/05/2024 14:00:00,0.331
03/05/2024 14:15:00,0.331
03/05/2024 14:30:00,0.33
03/05/2024 14:45:00,0.33
03/05/2024 15:00:00,0.33
03/05/2024 15:15:00,0.33
03/05/2024 15:30:00,0.329
03/05/2024 15:45:00,0.329
03/05/2024 16:00:00,0.329
03/05/2024 16:15:00,0.329
03/05/2024 16:30:00,0.329
03/05/2024 16:45:00,0.329
03/05/2024 17:00:00,0.329
03/05/2024 17:15:00,0.329
03/05/2024 17:30:00,0.329
03/05/2024 17:45:00,0.329
03/05/2024 18:00:00,0.329
03/05/2024 18:15:00,0.329
03/05/2024 18:30:00,0.329
03/05/2024 18:45:00,0.329
03/05/2024 19:00:00,0.329
03/05/2024 19:15:00,0.329
03/05/2024 19:30:00,0.33
03/05/2024 19:45:00,0.33
03/05/2024 20:00:00,0.33
03/05/2024 20:15:00,0.33
03/05/2024 20:30:00,0.33
03/05/2024 20:45:00,0.329
03/05/2024 21:00:00,0.329
03/05/2024 21:15:00,0.329
03/05/2024 21:30:00,0.329
03/05/2024 21:45:00,0.329
03/05/2024 22:00:00,0.329
03/05/2024 22:15:00,0.329
03/05/2024 22:30:00,0.329
03/05/2024 22:45:00,0.329
03/05/2024 23:00:00,0.329
03/05/2024 23:15:00,0.329
03/05/2024 23:30:00,0.329
03/05/2024 23:45:00,0.329
04/05/2024 00:00:00,0.328
04/05/2024 00:15:00,0.328
04/05/2024 00:30:00,0.328
04/05/2024 00:45:00,0.328
04/05/2024 01:00:00,0.329
04/05/2024 01:15:00,0.329
04/05/2024 01:30:00,0.329
04/05/2024 01:45:00,0.329
04/05/2024 02:00:00,0.329
04/05/2024 02:15:00,0.33
04/05/2024 02:30:00,0.33
04/05/2024 02:45:00,0.331
04/05/2024 03:00:00,0.331
04/05/2024 03:15:00,0.332
04/05/2024 03:30:00,0.332
04/05/2024 03:45:00,0.332
04/05/2024 04:00:00,0.332
04/05/2024 04:15:00,0.333
04/05/2024 04:30:00,0.333
04/05/2024 04:45:00,0.333
04/05/2024 05:00:00,0.334
04/05/2024 05:15:00,0.334
04/05/2024 05:30:00,0.334
04/05/2024 05:45:00,0.334
04/05/2024 06:00:00,0.334
04/05/2024 06:15:00,0.334
04/05/2024 06:30:00,0.334
04/05/2024 06:45:00,0.334
04/05/2024 07:00:00,0.334
04/05/2024 07:15:00,0.335
04/05/2024 07:30:00,0.335
04/05/2024 07:45:00,0.335
04/05/2024 08:00:00,0.336
04/05/2024 08:15:00,0.337
04/05/2024 08:30:00,0.337
04/05/2024 08:45:00,0.338
04/05/2024 09:00:00,0.339
04/05/2024 09:15:00,0.34
04/05/2024 09:30:00,0.341
04/05/2024 09:45:00,0.341
04/05/2024 10:00:00,0.342
04/05/2024 10:15:00,0.343
04/05/2024 10:30:00,0.343
04/05/2024 10:45:00,0.344
04/05/2024 11:00:00,0.345
04/05/2024 11:15:00,0.345
04/05/2024 11:30:00,0.345
04/05/2024 11:45:00,0.345
04/05/2024 12:00:00,0.346
04/05/2024 12:15:00,0.346
04/05/2024 12:30:00,0.346
04/05/2024 12:45:00,0.347
04/05/2024 13:00:00,0.347
04/05/2024 13:15:00,0.347
04/05/2024 13:30:00,0.347
04/05/2024 13:45:00,0.347
04/05/2024 14:00:00,0.347
04/05/2024 14:15:00,0.347
04/05/2024 14:30:00,0.347
04/05/2024 14:45:00,0.347
04/05/2024 15:00:00,0.347
04/05/2024 15:15:00,0.347
04/05/2024 15:30:00,0.347
04/05/2024 15:45:00,0.347
04/05/2024 16:00:00,0.347
04/05/2024 16:15:00,0.347
04/05/2024 16:30:00,0.346
04/05/2024 16:45:00,0.347
04/05/2024 17:00:00,0.347
04/05/2024 17:15:00,0.347
04/05/2024 17:30:00,0.347
04/05/2024 17:45:00,0.347
04/05/2024 18:00:00,0.346
04/05/2024 18:15:00,0.346
04/05/2024 18:30:00,0.346
04/05/2024 18:45:00,0.346
04/05/2024 19:00:00,0.346
04/05/2024 19:15:00,0.346
04/05/2024 19:30:00,0.346
04/05/2024 19:45:00,0.346
04/05/2024 20:00:00,0.345
04/05/2024 20:15:00,0.345
04/05/2024 20:30:00,0.345
04/05/2024 20:45:00,0.345
04/05/2024 21:00:00,0.345
04/05/2024 21:15:00,0.345
04/05/2024 21:30:00,0.345
04/05/2024 21:45:00,0.345
04/05/2024 22:00:00,0.345
04/05/2024 22:15:00,0.345
04/05/2024 22:30:00,0.344
04/05/2024 22:45:00,0.344
04/05/2024 23:00:00,0.344
04/05/2024 23:15:00,0.344
04/05/2024 23:30:00,0.344
04/05/2024 23:45:00,0.344
05/05/2024 00:00:00,0.344
05/05/2024 00:15:00,0.344
05/05/2024 00:30:00,0.344
05/05/2024 00:45:00,0.344
05/05/2024 01:00:00,0.344
05/05/2024 01:15:00,0.344
05/05/2024 01:30:00,0.344
05/05/2024 01:45:00,0.344
05/05/2024 02:00:00,0.344
05/05/2024 02:15:00,0.344
05/05/2024 02:30:00,0.344
05/05/2024 02:45:00,0.345
05/05/2024 03:00:00,0.345
05/05/2024 03:15:00,0.345
05/05/2024 03:30:00,0.345
05/05/2024 03:45:00,0.345
05/05/2024 04:00:00,0.345
05/05/2024 04:15:00,0.345
05/05/2024 04:30:00,0.346
05/05/2024 04:45:00,0.346
05/05/2024 05:00:00,0.347
05/05/2024 05:15:00,0.347
05/05/2024 05:30:00,0.348
05/05/2024 05:45:00,0.348
05/05/2024 06:00:00,0.348
05/05/2024 06:15:00,0.348
05/05/2024 06:30:00,0.348
05/05/2024 06:45:00,0.348
05/05/2024 07:00:00,0.349
05/05/2024 07:15:00,0.349
05/05/2024 07:30:00,0.35
05/05/2024 07:45:00,0.35
05/05/2024 08:00:00,0.35
05/05/2024 08:15:00,0.35
05/05/2024 08:30:00,0.35
05/05/2024 08:45:00,0.351
05/05/2024 09:00:00,0.352
05/05/2024 09:15:00,0.353
05/05/2024 09:30:00,0.353
05/05/2024 09:45:00,0.354
05/05/2024 10:00:00,0.355
05/05/2024 10:15:00,0.355
05/05/2024 10:30:00,0.356
05/05/2024 10:45:00,0.356
05/05/2024 11:00:00,0.356
05/05/2024 11:15:00,0.357
05/05/2024 11:30:00,0.357
05/05/2024 11:45:00,0.357
05/05/2024 12:00:00,0.357
05/05/2024 12:15:00,0.358
05/05/2024 12:30:00,0.358
05/05/2024 12:45:00,0.358
05/05/2024 13:00:00,0.359
05/05/2024 13:15:00,0.359
05/05/2024 13:30:00,0.36
05/05/2024 13:45:00,0.36
05/05/2024 14:00:00,0.36
05/05/2024 14:15:00,0.36
05/05/2024 14:30:00,0.361
05/05/2024 14:45:00,0.361
05/05/2024 15:00:00,0.361
05/05/2024 15:15:00,0.361
05/05/2024 15:30:00,0.362
05/05/2024 15:45:00,0.362
05/05/2024 16:00:00,0.362
05/05/2024 16:15:00,0.362
05/05/2024 16:30:00,0.362
05/05/2024 16:45:00,0.363
05/05/2024 17:00:00,0.363
05/05/2024 17:15:00,0.363
05/05/2024 17:30:00,0.363
05/05/2024 17:45:00,0.363
05/05/2024 18:00:00,0.363
05/05/2024 18:15:00,0.363
05/05/2024 18:30:00,0.363
05/05/2024 18:45:00,0.362
05/05/2024 19:00:00,0.362
05/05/2024 19:15:00,0.362
05/05/2024 19:30:00,0.363
05/05/2024 19:45:00,0.363
05/05/2024 20:00:00,0.363
05/05/2024 20:15:00,0.363
05/05/2024 20:30:00,0.363
05/05/2024 20:45:00,0.363
05/05/2024 21:00:00,0.362
05/05/2024 21:15:00,0.362
05/05/2024 21:30:00,0.362
05/05/2024 21:45:00,0.362
05/05/2024 22:00:00,0.361
05/05/2024 22:15:00,0.361
05/05/2024 22:30:00,0.361
05/05/2024 22:45:00,0.361
05/05/2024 23:00:00,0.361
05/05/2024 23:15:00,0.361
05/05/2024 23:30:00,0.361
05/05/2024 23:45:00,0.36
06/05/2024 00:00:00,0.36
06/05/2024 00:15:00,0.36
06/05/2024 00:30:00,0.36
06/05/2024 00:45:00,0.36
06/05/2024 01:00:00,0.36
06/05/2024 01:15:00,0.359
06/05/2024 01:30:00,0.359
06/05/2024 01:45:00,0.359
06/05/2024 02:00:00,0.359
06/05/2024 02:15:00,0.359
06/05/2024 02:30:00,0.358
06/05/2024 02:45:00,0.358
06/05/2024 03:00:00,0.358
06/05/2024 03:15:00,0.358
06/05/2024 03:30:00,0.358
06/05/2024 03:45:00,0.358
06/05/2024 04:00:00,0.357
06/05/2024 04:15:00,0.357
06/05/2024 04:30:00,0.357
06/05/2024 04:45:00,0.356
06/05/2024 05:00:00,0.356
06/05/2024 05:15:00,0.356
06/05/2024 05:30:00,0.355
06/05/2024 05:45:00,0.355
06/05/2024 06:00:00,0.355
06/05/2024 06:15:00,0.355
06/05/2024 06:30:00,0.355
06/05/2024 06:45:00,0.355
06/05/2024 07:00:00,0.355
06/05/2024 07:15:00,0.355
06/05/2024 07:30:00,0.356
06/05/2024 07:45:00,0.356
06/05/2024 08:00:00,0.356
06/05/2024 08:15:00,0.357
06/05/2024 08:30:00,0.359
06/05/2024 08:45:00,0.36
06/05/2024 09:00:00,0.362
06/05/2024 09:15:00,0.364
06/05/2024 09:30:00,0.367
06/05/2024 09:45:00,0.369
06/05/2024 10:00:00,0.373
06/05/2024 10:15:00,0.376
06/05/2024 10:30:00,0.381
06/05/2024 10:45:00,0.388
06/05/2024 11:00:00,0.396
06/05/2024 11:15:00,0.402
06/05/2024 11:30:00,0.406
06/05/2024 11:45:00,0.41
06/05/2024 12:00:00,0.412
06/05/2024 12:15:00,0.413
06/05/2024 12:30:00,0.413
06/05/2024 12:45:00,0.413
06/05/2024 13:00:00,0.413
06/05/2024 13:15:00,0.412
06/05/2024 13:30:00,0.411
06/05/2024 13:45:00,0.412
06/05/2024 14:00:00,0.414
06/05/2024 14:15:00,0.417
06/05/2024 14:30:00,0.423
06/05/2024 14:45:00,0.428
06/05/2024 15:00:00,0.439
06/05/2024 15:15:00,0.456
06/05/2024 15:30:00,0.473
06/05/2024 15:45:00,0.488
06/05/2024 16:00:00,0.501
06/05/2024 16:15:00,0.509
06/05/2024 16:30:00,0.514
06/05/2024 16:45:00,0.517
06/05/2024 17:00:00,0.518
06/05/2024 17:15:00,0.517
06/05/2024 17:30:00,0.515
06/05/2024 17:45:00,0.512
06/05/2024 18:00:00,0.509
06/05/2024 18:15:00,0.505
06/05/2024 18:30:00,0.501
06/05/2024 18:45:00,0.497
06/05/2024 19:00:00,0.494
06/05/2024 19:15:00,0.491
06/05/2024 19:30:00,0.487
06/05/2024 19:45:00,0.484
06/05/2024 20:00:00,0.48
06/05/2024 20:15:00,0.477
06/05/2024 20:30:00,0.476
06/05/2024 20:45:00,0.474
06/05/2024 21:00:00,0.473
06/05/2024 21:15:00,0.471
06/05/2024 21:30:00,0.469
06/05/2024 21:45:00,0.466
06/05/2024 22:00:00,0.464
06/05/2024 22:15:00,0.461
06/05/2024 22:30:00,0.458
06/05/2024 22:45:00,0.456
06/05/2024 23:00:00,0.453
06/05/2024 23:15:00,0.451
06/05/2024 23:30:00,0.449
06/05/2024 23:45:00,0.45
07/05/2024 00:00:00,0.457
07/05/2024 00:15:00,0.465
07/05/2024 00:30:00,0.473
07/05/2024 00:45:00,0.477
07/05/2024 01:00:00,0.477
07/05/2024 01:15:00,0.477
07/05/2024 01:30:00,0.475
07/05/2024 01:45:00,0.473
07/05/2024 02:00:00,0.471
07/05/2024 02:15:00,0.469
07/05/2024 02:30:00,0.466
07/05/2024 02:45:00,0.464
07/05/2024 03:00:00,0.462
07/05/2024 03:15:00,0.46
07/05/2024 03:30:00,0.458
07/05/2024 03:45:00,0.455
07/05/2024 04:00:00,0.453
07/05/2024 04:15:00,0.451
07/05/2024 04:30:00,0.449
07/05/2024 04:45:00,0.447
07/05/2024 05:00:00,0.445
07/05/2024 05:15:00,0.443
07/05/2024 05:30:00,0.442
07/05/2024 05:45:00,0.44
07/05/2024 06:00:00,0.438
07/05/2024 06:15:00,0.437
07/05/2024 06:30:00,0.435
07/05/2024 06:45:00,0.433
07/05/2024 07:00:00,0.431
07/05/2024 07:15:00,0.43
07/05/2024 07:30:00,0.428
07/05/2024 07:45:00,0.427
07/05/2024 08:00:00,0.425
